Preston, Minnesota, United States (55965)
Lat: 43.67N, Lon: 92.08W
Wx Zone: MNZ095
Local Info
Past Weather Observations for Today

NOTE: This archive is for the closest National Weather Service station to Preston. Information may differ from the station used for current weather conditions.

Click here for Long-term Archive

Time Weather Temperature Dewpoint Humidity Pressure Winds Precip Visibility
14:55
Clear
61°F / 16°C 41°F / 5°C 48% 29.98 in
(1015 mb)
N 13.8 mph
(N 22 kph)
- 10SM
14:35
Clear
61°F / 16°C 41°F / 5°C 48% 29.98 in
(1015 mb)
NNW 13.8 mph
(NNW 22 kph)
- 10SM
14:16
Clear
61°F / 16°C 41°F / 5°C 48% 29.98 in
(1015 mb)
NNW 15 mph
(NNW 24 kph)
- 10SM
13:56
Clear
61°F / 16°C 43°F / 6°C 52% 29.98 in
(1015 mb)
NNW 10.4 mph
(NNW 17 kph)
- 7SM
13:35
Clear
61°F / 16°C 43°F / 6°C 52% 29.98 in
(1015 mb)
NNW 16.1 mph
(NNW 26 kph)
- 10SM
13:15
Clear
61°F / 16°C 43°F / 6°C 52% 29.95 in
(1014 mb)
N 17.3 mph
(N 28 kph)
- 10SM
12:56
Clear
59°F / 15°C 43°F / 6°C 55% 29.98 in
(1015 mb)
NNW 15 mph
(NNW 24 kph)
- 10SM
12:35
Clear
59°F / 15°C 43°F / 6°C 55% 29.98 in
(1015 mb)
N 11.5 mph
(N 19 kph)
- 10SM
12:15
Clear
59°F / 15°C 45°F / 7°C 59% 29.98 in
(1015 mb)
NW 13.8 mph
(NW 22 kph)
- 10SM
11:55
Clear
59°F / 15°C 45°F / 7°C 59% 29.98 in
(1015 mb)
NW 13.8 mph
(NW 22 kph)
- 10SM
11:35
Partly Cloudy
59°F / 15°C 43°F / 6°C 55% 29.98 in
(1015 mb)
N 13.8 mph
(N 22 kph)
- 10SM
11:15
Clear
57°F / 14°C 45°F / 7°C 63% 30.01 in
(1016 mb)
NW 12.7 mph
(NW 20 kph)
- 10SM
10:55
Clear
57°F / 14°C 45°F / 7°C 63% 30.01 in
(1016 mb)
NNW 9.2 mph
(NNW 15 kph)
- 10SM
10:36
Clear
55°F / 13°C 43°F / 6°C 63% 30.01 in
(1016 mb)
NNW 11.5 mph
(NNW 19 kph)
- 10SM
10:15
Clear
55°F / 13°C 45°F / 7°C 67% 30.01 in
(1016 mb)
NNW 8.1 mph
(NNW 13 kph)
- 10SM
09:55
Clear
55°F / 13°C 45°F / 7°C 67% 30.01 in
(1016 mb)
NW 9.2 mph
(NW 15 kph)
- 10SM
09:35
Clear
54°F / 12°C 45°F / 7°C 72% 30.01 in
(1016 mb)
NW 6.9 mph
(NW 11 kph)
- 10SM
09:15
Clear
52°F / 11°C 45°F / 7°C 77% 30.01 in
(1016 mb)
NW 8.1 mph
(NW 13 kph)
- 10SM
08:55
Clear
52°F / 11°C 43°F / 6°C 72% 30.01 in
(1016 mb)
NW 9.2 mph
(NW 15 kph)
- 10SM
08:35
Clear
50°F / 10°C 43°F / 6°C 76% 30.01 in
(1016 mb)
NW 9.2 mph
(NW 15 kph)
- 10SM
08:15
Clear
48°F / 9°C 43°F / 6°C 82% 29.98 in
(1015 mb)
NW 5.8 mph
(NW 9 kph)
- 10SM
07:56
Clear
46°F / 8°C 41°F / 5°C 82% 29.98 in
(1015 mb)
NW 9.2 mph
(NW 15 kph)
- 10SM
07:35
Clear
45°F / 7°C 41°F / 5°C 87% 29.98 in
(1015 mb)
NW 6.9 mph
(NW 11 kph)
- 10SM
07:15
Clear
43°F / 6°C 41°F / 5°C 93% 29.98 in
(1015 mb)
WNW 8.1 mph
(WNW 13 kph)
- 10SM
06:55
Clear
43°F / 6°C 39°F / 4°C 87% 29.98 in
(1015 mb)
NW 5.8 mph
(NW 9 kph)
- 10SM
06:35
Clear
41°F / 5°C 39°F / 4°C 93% 29.95 in
(1014 mb)
NW 8.1 mph
(NW 13 kph)
- 10SM
06:15
Clear
41°F / 5°C 39°F / 4°C 93% 29.95 in
(1014 mb)
WNW 8.1 mph
(WNW 13 kph)
- 10SM
05:56
Clear
41°F / 5°C 39°F / 4°C 93% 29.95 in
(1014 mb)
NW 6.9 mph
(NW 11 kph)
- 10SM
05:35
Clear
41°F / 5°C 39°F / 4°C 93% 29.95 in
(1014 mb)
W 6.9 mph
(W 11 kph)
- 10SM
05:15
Clear
43°F / 6°C 39°F / 4°C 87% 29.95 in
(1014 mb)
WNW 5.8 mph
(WNW 9 kph)
- 10SM
04:55
Clear
43°F / 6°C 39°F / 4°C 87% 29.95 in
(1014 mb)
WNW 5.8 mph
(WNW 9 kph)
- 10SM
04:35
Clear
43°F / 6°C 39°F / 4°C 87% 29.95 in
(1014 mb)
NW 4.6 mph
(NW 7 kph)
- 10SM
04:16
Clear
45°F / 7°C 39°F / 4°C 81% 29.92 in
(1013 mb)
NW 5.8 mph
(NW 9 kph)
- 10SM
03:55
Clear
45°F / 7°C 41°F / 5°C 87% 29.92 in
(1013 mb)
NW 5.8 mph
(NW 9 kph)
- 10SM
03:35
Clear
46°F / 8°C 41°F / 5°C 82% 29.92 in
(1013 mb)
NW 6.9 mph
(NW 11 kph)
- 10SM
03:16
Clear
46°F / 8°C 41°F / 5°C 82% 29.92 in
(1013 mb)
NW 9.2 mph
(NW 15 kph)
- 10SM
02:55
Clear
46°F / 8°C 41°F / 5°C 82% 29.92 in
(1013 mb)
NNW 10.4 mph
(NNW 17 kph)
- 10SM
02:35
Clear
48°F / 9°C 41°F / 5°C 76% 29.89 in
(1012 mb)
NW 11.5 mph
(NW 19 kph)
- 10SM
02:16
Clear
48°F / 9°C 41°F / 5°C 76% 29.89 in
(1012 mb)
NW 10.4 mph
(NW 17 kph)
- 10SM
01:55
Clear
48°F / 9°C 41°F / 5°C 76% 29.89 in
(1012 mb)
NW 12.7 mph
(NW 20 kph)
- 10SM
01:35
Clear
48°F / 9°C 41°F / 5°C 76% 29.89 in
(1012 mb)
NW 10.4 mph
(NW 17 kph)
- 10SM
01:16
Clear
50°F / 10°C 41°F / 5°C 71% 29.89 in
(1012 mb)
NW 11.5 mph
(NW 19 kph)
- 10SM
00:55
Clear
50°F / 10°C 41°F / 5°C 71% 29.89 in
(1012 mb)
NW 11.5 mph
(NW 19 kph)
- 10SM
00:35
Clear
50°F / 10°C 41°F / 5°C 71% 29.86 in
(1011 mb)
NW 11.5 mph
(NW 19 kph)
- 10SM
00:16
Clear
50°F / 10°C 43°F / 6°C 76% 29.86 in
(1011 mb)
NW 10.4 mph
(NW 17 kph)
- 10SM
Time Weather Temperature Dewpoint Humidity Pressure Winds Precip Visibility


Weather for websites

WeatherForYou.com, LLC is not responsible for any damages or problems caused by this service. Current weather conditions are obtained from the closest station including government and personal stations which may have varying degrees of accuracy. Weather forecasts are derived from the NOAA NDFD. Like all things, this site belongs to Jesus Christ... He just trusts me to maintain it. If you have any questions or comments email webmaster@weatherforyou.com

Copyright © 2014, WeatherForYou.com LLC. All rights reserved.